TimeEST,TemperatureF,Dew PointF,Humidity,Sea Level PressureIn,VisibilityMPH,Wind Direction,Wind SpeedMPH,Gust SpeedMPH,PrecipitationIn,Events,Conditions,WindDirDegrees,DateUTC
12:15 AM,36.1,33.1,89,30.05,10.0,WSW,5.8,-,N/A,,Clear,240,2014-01-17 05:15:00
12:35 AM,36.5,32.9,87,30.05,10.0,WSW,5.8,-,N/A,,Clear,240,2014-01-17 05:35:00
12:55 AM,36.1,32.9,88,30.04,10.0,SW,6.9,-,N/A,,Clear,230,2014-01-17 05:55:00
1:15 AM,36.0,32.7,88,30.04,10.0,SW,5.8,-,N/A,,Clear,220,2014-01-17 06:15:00
1:35 AM,34.9,32.0,89,30.05,10.0,SW,6.9,-,N/A,,Clear,220,2014-01-17 06:35:00
1:55 AM,35.6,32.2,87,30.05,10.0,SW,5.8,-,N/A,,Clear,220,2014-01-17 06:55:00
2:15 AM,35.8,32.4,87,30.05,10.0,SW,8.1,-,N/A,,Clear,230,2014-01-17 07:15:00
2:35 AM,35.8,32.2,87,30.04,10.0,SW,5.8,-,N/A,,Clear,220,2014-01-17 07:35:00
2:55 AM,36.1,32.4,86,30.04,10.0,SW,6.9,-,N/A,,Clear,220,2014-01-17 07:55:00
3:15 AM,36.0,32.2,86,30.04,10.0,SW,5.8,-,N/A,,Clear,230,2014-01-17 08:15:00
3:35 AM,36.1,32.2,86,30.05,10.0,SW,8.1,-,N/A,,Clear,220,2014-01-17 08:35:00
3:55 AM,36.5,32.5,86,30.05,10.0,SW,8.1,-,N/A,,Clear,230,2014-01-17 08:55:00
4:15 AM,36.1,32.4,86,30.04,10.0,SW,8.1,-,N/A,,Clear,230,2014-01-17 09:15:00
4:35 AM,35.8,32.2,87,30.04,10.0,SW,6.9,-,N/A,,Clear,220,2014-01-17 09:35:00
4:55 AM,35.6,32.0,87,30.04,10.0,SSW,9.2,-,N/A,,Clear,210,2014-01-17 09:55:00
5:15 AM,35.6,32.0,87,30.04,10.0,SW,8.1,-,N/A,,Clear,220,2014-01-17 10:15:00
5:35 AM,35.6,32.0,87,30.03,10.0,SW,6.9,-,N/A,,Clear,230,2014-01-17 10:35:00
5:55 AM,35.6,32.0,87,30.04,10.0,SSW,9.2,-,N/A,,Clear,210,2014-01-17 10:55:00
6:15 AM,35.6,32.0,87,30.04,10.0,SSW,8.1,-,N/A,,Clear,210,2014-01-17 11:15:00
6:35 AM,35.2,31.8,87,30.05,10.0,SSW,9.2,-,N/A,,Clear,200,2014-01-17 11:35:00
6:55 AM,34.5,31.8,90,30.05,10.0,SSW,6.9,-,N/A,,Clear,200,2014-01-17 11:55:00
7:15 AM,35.1,31.8,88,30.06,10.0,SSW,8.1,-,N/A,,Clear,210,2014-01-17 12:15:00
7:35 AM,34.9,31.6,88,30.06,10.0,SSW,6.9,-,N/A,,Clear,210,2014-01-17 12:35:00
7:55 AM,36.0,31.8,85,30.06,10.0,SSW,8.1,-,N/A,,Clear,210,2014-01-17 12:55:00
8:15 AM,36.7,31.6,82,30.06,10.0,SSW,6.9,-,N/A,,Clear,210,2014-01-17 13:15:00
8:35 AM,37.9,31.6,78,30.06,10.0,SSW,8.1,-,N/A,,Clear,210,2014-01-17 13:35:00
8:55 AM,39.4,30.9,72,30.06,10.0,SSW,10.4,-,N/A,,Clear,210,2014-01-17 13:55:00
9:15 AM,40.1,31.3,71,30.07,10.0,SSW,10.4,-,N/A,,Clear,210,2014-01-17 14:15:00
9:35 AM,41.2,31.6,69,30.07,10.0,SSW,9.2,-,N/A,,Clear,210,2014-01-17 14:35:00
9:55 AM,41.9,30.9,65,30.07,10.0,SW,9.2,-,N/A,,Clear,220,2014-01-17 14:55:00
10:15 AM,43.2,31.6,64,30.07,10.0,SSW,9.2,-,N/A,,Clear,210,2014-01-17 15:15:00
10:35 AM,43.5,30.9,61,30.07,10.0,SW,9.2,-,N/A,,Clear,220,2014-01-17 15:35:00
10:55 AM,44.8,30.7,58,30.07,10.0,SW,10.4,-,N/A,,Clear,220,2014-01-17 15:55:00
11:15 AM,46.0,30.6,55,30.06,10.0,SSW,10.4,-,N/A,,Clear,210,2014-01-17 16:15:00
11:35 AM,46.9,30.9,54,30.05,10.0,SSW,8.1,-,N/A,,Clear,200,2014-01-17 16:35:00
11:55 AM,48.0,31.3,52,30.04,10.0,SSW,8.1,-,N/A,,Clear,200,2014-01-17 16:55:00
12:15 PM,48.4,30.7,51,30.02,10.0,SSW,9.2,-,N/A,,Clear,200,2014-01-17 17:15:00
12:35 PM,49.6,32.2,51,30.01,10.0,SSW,6.9,-,N/A,,Clear,210,2014-01-17 17:35:00
12:55 PM,50.4,31.8,49,29.99,10.0,SSW,8.1,-,N/A,,Clear,200,2014-01-17 17:55:00
1:15 PM,51.1,30.7,46,29.98,10.0,South,10.4,-,N/A,,Clear,190,2014-01-17 18:15:00
1:35 PM,52.0,31.3,45,29.98,10.0,South,8.1,-,N/A,,Clear,190,2014-01-17 18:35:00
1:55 PM,52.3,30.9,44,29.97,10.0,SSW,12.7,-,N/A,,Clear,200,2014-01-17 18:55:00
2:15 PM,53.1,30.9,43,29.96,10.0,South,10.4,-,N/A,,Clear,190,2014-01-17 19:15:00
2:35 PM,52.9,31.1,43,29.95,10.0,South,11.5,-,N/A,,Clear,190,2014-01-17 19:35:00
2:55 PM,54.0,31.8,43,29.95,10.0,South,12.7,18.4,N/A,,Clear,190,2014-01-17 19:55:00
3:15 PM,53.8,30.6,41,29.94,10.0,SSW,11.5,-,N/A,,Clear,200,2014-01-17 20:15:00
3:35 PM,53.4,32.0,44,29.94,10.0,South,12.7,17.3,N/A,,Clear,180,2014-01-17 20:35:00
3:55 PM,52.9,32.4,46,29.94,10.0,South,10.4,-,N/A,,Clear,180,2014-01-17 20:55:00
4:15 PM,51.1,32.4,49,29.94,10.0,South,11.5,-,N/A,,Clear,180,2014-01-17 21:15:00
4:35 PM,50.7,32.0,49,29.93,10.0,South,12.7,-,N/A,,Clear,170,2014-01-17 21:35:00
4:55 PM,50.4,32.5,50,29.93,10.0,SSE,9.2,-,N/A,,Clear,160,2014-01-17 21:55:00
5:15 PM,49.1,33.3,54,29.92,10.0,SSE,10.4,-,N/A,,Clear,160,2014-01-17 22:15:00
5:35 PM,48.6,33.4,56,29.93,10.0,South,10.4,-,N/A,,Clear,170,2014-01-17 22:35:00
5:55 PM,48.4,34.2,58,29.92,10.0,SSE,10.4,-,N/A,,Clear,160,2014-01-17 22:55:00
6:15 PM,48.2,35.2,61,29.93,10.0,South,9.2,-,N/A,,Clear,170,2014-01-17 23:15:00
6:35 PM,48.0,36.3,64,29.92,10.0,South,8.1,-,N/A,,Clear,170,2014-01-17 23:35:00
6:55 PM,47.8,36.7,65,29.92,10.0,South,9.2,-,N/A,,Clear,170,2014-01-17 23:55:00
7:15 PM,47.7,37.4,68,29.93,10.0,South,9.2,-,N/A,,Clear,190,2014-01-18 00:15:00
7:35 PM,48.2,37.4,66,29.92,10.0,South,10.4,-,N/A,,Clear,190,2014-01-18 00:35:00
7:55 PM,48.0,37.9,68,29.92,10.0,South,10.4,-,N/A,,Clear,190,2014-01-18 00:55:00
8:15 PM,47.8,38.3,70,29.92,10.0,South,9.2,-,N/A,,Clear,190,2014-01-18 01:15:00
8:35 PM,47.7,38.7,71,29.93,10.0,South,8.1,-,N/A,,Clear,190,2014-01-18 01:35:00
8:55 PM,47.5,38.7,71,29.93,10.0,South,6.9,-,N/A,,Clear,190,2014-01-18 01:55:00
9:15 PM,47.3,39.2,73,29.93,10.0,South,5.8,-,N/A,,Clear,190,2014-01-18 02:15:00
9:35 PM,46.6,39.4,76,29.93,10.0,South,4.6,-,N/A,,Clear,180,2014-01-18 02:35:00
9:55 PM,46.6,39.6,77,29.92,10.0,South,4.6,-,N/A,,Scattered Clouds,180,2014-01-18 02:55:00
10:15 PM,46.6,39.6,77,29.92,10.0,South,4.6,-,N/A,,Scattered Clouds,170,2014-01-18 03:15:00
10:35 PM,46.8,39.4,75,29.92,10.0,South,3.5,-,N/A,,Mostly Cloudy,180,2014-01-18 03:35:00
10:55 PM,45.9,39.0,77,29.91,10.0,Calm,Calm,-,N/A,,Mostly Cloudy,0,2014-01-18 03:55:00
11:15 PM,45.9,39.6,79,29.90,10.0,South,3.5,-,N/A,,Overcast,170,2014-01-18 04:15:00
11:35 PM,46.0,39.7,79,29.89,10.0,South,4.6,-,N/A,,Overcast,170,2014-01-18 04:35:00
11:55 PM,46.4,39.7,78,29.87,10.0,SSE,4.6,-,N/A,,Overcast,160,2014-01-18 04:55:00